Overview Statistics Trail Chart Weather Telemetry Raw packets
 

This is the latest recevied weather packets stored in our database for station/object WA6OOO. If no packets are shown the sender has not sent any weather packets the latest 10 day(s).

<< 91 92 93 94 95 96 97 >>
Time Temp. Humidity Pressure Rain* Wind** Luminosity Snow
1787997372 21.11° C 87% 1014.6 hPa 0 mm - 0 W/m² -
1787997066 21.11° C 88% 1014.6 hPa 0 mm - 0 W/m² -
1787996761 21.11° C 89% 1014.5 hPa 0 mm - 0 W/m² -
1787996457 21.11° C 89% 1014.5 hPa 0 mm - 0 W/m² -
1787996157 21.11° C 89% 1014.5 hPa 0 mm - 0 W/m² -
1787995856 20.56° C 90% 1014.5 hPa 0 mm - 0 W/m² -
1787995552 20.56° C 89% 1014.5 hPa 0 mm - 0 W/m² -
1787995248 20.56° C 89% 1014.7 hPa 0 mm - 0 W/m² -
1787994943 20.56° C 89% 1014.7 hPa 0 mm - 0 W/m² -
1787994639 20.56° C 88% 1014.8 hPa 0 mm - 0 W/m² -
1787994336 20.56° C 87% 1014.8 hPa 0 mm - 0 W/m² -
1787994031 21.11° C 86% 1014.5 hPa 0 mm - 0 W/m² -
1787993729 20.56° C 84% 1014.3 hPa 0 mm - 0 W/m² -
1787993424 20.56° C 86% 1014.3 hPa 0 mm - 0 W/m² -
1787993120 20.56° C 87% 1014.3 hPa 0 mm - 0 W/m² -
1787992814 21.11° C 88% 1014.3 hPa 0 mm - 0 W/m² -
1787992514 21.11° C 87% 1014.3 hPa 0 mm - 0 W/m² -
1787992208 21.11° C 87% 1014.5 hPa 0 mm - 0 W/m² -
1787991903 21.11° C 86% 1014.7 hPa 0 mm - 0 W/m² -
1787991602 21.67° C 84% 1014.8 hPa 0 mm - 0 W/m² -
1787991299 22.22° C 81% 1014.8 hPa 0 mm - 0 W/m² -
1787990998 22.22° C 81% 1014.8 hPa 0 mm - 0 W/m² -
1787990698 21.67° C 83% 1014.8 hPa 0 mm - 0 W/m² -
1787990397 21.67° C 83% 1014.6 hPa 0 mm - 0 W/m² -
1787990092 21.67° C 82% 1014.7 hPa 0 mm - 0 W/m² -

* Rain latest hour (hover to see other rain measurements)
** Current wind speed in m/s (hover to see current wind gust speed)